Wind_Speed
4 4 5 5 5 4 4 4 4 3 4 4 4 4 3 2 2 4 2 3 1 2 2 3 3 3 2 3 3 3 4 5 5 5 5 7 8 4 3 3 3 5 3 4 5
4 4 5 5 6 6 6 5 5 4 4 4 4 4 4 3 3 1 4 3 1 1 1 1 1 1 1 2 2 2 4 2 2 3 2 8 7 5 4 6 7 8 9 9 7
5 5 5 6 6 7 8 7 6 6 5 5 4 4 4 3 3 2 5 4 1 2 2 2 0 2 2 2 2 1 0 4 4 2 2 4 6 5 6 7 9 7 8 11 11
7 6 6 7 8 7 8 8 8 7 6 5 5 5 4 2 2 2 4 3 1 0 2 3 1 1 2 2 2 2 3 2 3 2 2 3 3 5 12 9 3 5 6 9 13
9 9 8 7 7 8 8 8 9 8 7 6 5 5 4 3 4 3 3 2 0 0 1 0 1 2 2 3 2 1 3 2 2 2 2 2 6 8 11 10 11 12 10 10 13
11 11 10 10 9 8 8 9 9 9 8 7 6 5 4 6 4 2 2 2 1 1 1 2 1 3 5 2 1 2 3 2 2 3 2 4 4 2 2 4 10 15 13 12 14
13 12 11 12 11 9 8 9 9 9 9 8 6 6 7 7 4 3 1 1 1 1 1 2 3 1 3 4 3 3 3 4 2 1 1 2 7 9 7 6 6 9 14 14 15
17 15 12 12 12 10 8 8 9 9 8 8 7 6 6 6 9 6 3 2 1 2 3 3 4 4 2 5 3 3 3 3 3 1 1 3 1 6 6 6 8 9 12 15 16
21 17 14 13 13 11 9 7 7 7 7 7 6 5 5 4 8 9 6 3 2 2 2 3 3 3 3 3 4 2 1 2 2 0 2 4 5 3 6 7 11 11 12 14 15
21 19 16 14 13 10 8 7 6 6 7 7 9 5 7 3 6 8 8 6 3 3 2 2 2 2 2 4 1 0 2 1 3 2 4 8 15 12 11 14 17 15 16 15 15
24 17 17 14 13 9 6 4 3 3 9 7 3 3 2 5 5 8 8 6 4 3 4 1 5 3 1 2 2 1 2 5 2 1 5 5 12 13 9 8 11 13 15 17 17
22 19 16 15 11 7 3 0 1 1 8 14 20 15 11 4 3 8 9 7 5 6 3 4 4 3 6 4 1 1 4 4 3 2 5 7 15 11 7 5 6 6 12 16 15
17 20 17 12 10 7 3 4 2 4 6 6 15 14 16 12 5 8 10 6 3 5 6 6 3 8 3 5 4 3 5 2 4 7 4 8 7 6 5 6 6 7 8 10 14
15 18 18 12 4 7 6 7 5 3 4 4 5 4 12 7 6 10 12 4 3 6 5 4 4 5 4 4 4 5 2 1 3 4 3 1 1 7 7 5 6 6 7 8 10
13 17 17 10 4 6 7 8 5 1 5 4 4 3 10 11 6 4 13 5 5 6 5 3 5 6 5 1 4 2 1 1 2 5 5 5 4 5 5 8 8 8 6 5 6
15 17 17 11 8 7 9 8 6 4 7 3 4 5 9 6 2 5 4 4 4 4 1 2 0 2 1 4 1 7 2 2 3 3 5 4 3 6 9 11 11 8 6 6 5
18 16 17 10 7 10 9 11 4 6 3 5 4 6 9 7 4 5 10 10 8 6 10 4 6 3 3 4 4 4 3 3 4 4 2 2 4 7 8 6 10 11 9 7 7
19 18 18 13 8 12 11 6 10 2 4 3 3 6 9 8 6 5 5 10 7 4 2 8 6 11 8 3 2 8 3 3 3 2 1 2 6 2 5 6 7 8 8 8 10
21 21 19 11 8 16 10 13 7 9 3 9 5 6 8 6 4 9 11 12 9 14 8 6 4 2 1 1 2 6 7 3 0 1 4 3 5 8 7 9 11 12 11 11 11
25 23 25 13 10 18 8 18 10 4 5 5 11 8 10 11 10 11 11 6 10 18 13 4 3 1 3 2 1 4 4 3 3 3 5 5 5 6 15 18 15 16 17 15 14
25 11 9 11 15 12 13 17 17 7 7 8 7 6 5 7 11 9 4 4 9 9 13 6 4 4 3 10 11 5 5 4 2 3 3 3 3 1 16 20 20 22 20 18 15
22 4 11 19 10 8 12 15 15 8 7 6 2 4 9 10 10 10 10 7 10 14 10 9 4 6 5 2 3 4 7 10 4 5 2 2 5 2 3 16 20 22 21 18 16
9 10 18 29 7 8 5 17 15 12 11 9 8 8 5 9 7 13 6 1 12 14 15 11 7 4 4 3 3 7 11 7 2 1 7 4 3 1 2 7 16 19 20 19 20
8 4 7 20 11 5 16 16 24 19 19 11 7 7 6 8 7 4 6 3 10 7 5 13 6 11 8 2 4 6 10 15 13 6 9 12 9 3 5 7 14 19 20 22 23
15 6 11 6 12 9 14 10 20 18 19 17 14 16 11 9 7 7 6 3 4 9 5 7 8 13 14 3 4 4 7 15 20 22 10 8 16 21 11 9 16 21 20 22 22
12 6 8 4 8 24 16 19 23 22 20 18 18 19 19 18 12 10 8 7 7 9 10 6 7 4 8 8 12 15 15 16 21 22 23 22 26 16 17 8 11 20 23 26 28
26 28 9 11 7 12 16 23 23 25 24 35 23 21 20 22 26 20 12 5 6 8 14 9 8 5 10 3 4 12 22 22 15 14 21 18 28 14 10 21 27 24 26 29 33
Wind_Direction
7 351 339 331 323 319 309 297 287 280 278 284 287 297 299 263 293 329 312 313 266 235 343 355 354 3 58 82 93 130 213 197 164 181 126 155 194 173 207 193 193 204 225 205 196
347 341 332 327 322 319 310 300 290 283 279 282 283 297 301 269 281 269 334 356 10 249 340 311 272 12 100 54 22 248 233 137 117 142 147 177 208 176 202 212 229 229 227 235 227
333 328 324 320 320 318 311 305 298 287 278 281 283 294 302 282 285 227 353 10 58 125 29 1 321 97 102 64 24 43 331 134 152 158 174 178 205 201 232 242 254 239 221 226 220
313 312 309 310 313 311 310 309 301 291 283 279 283 289 303 270 281 261 349 14 65 176 353 6 113 135 114 143 52 168 91 101 140 149 161 197 180 228 232 256 214 217 205 222 218
302 303 301 299 301 306 308 308 303 294 287 283 282 283 307 265 257 278 339 348 342 206 268 117 115 149 144 123 139 106 133 136 148 164 220 208 241 261 254 249 245 239 236 227 214
299 295 297 295 295 300 304 304 301 297 288 281 280 279 288 258 231 245 1 2 270 188 51 77 110 118 106 90 352 92 134 154 193 193 205 257 248 252 196 199 225 231 229 221 216
326 297 288 289 290 294 299 300 298 296 289 277 274 274 271 254 225 208 292 30 68 188 133 101 130 105 129 127 119 143 203 194 193 209 220 287 235 232 226 231 235 228 221 220 223
336 320 292 281 284 289 292 295 295 291 286 274 271 278 260 247 228 224 228 251 67 96 124 112 112 120 74 127 150 213 229 218 109 190 204 269 137 188 208 221 237 230 223 223 225
335 328 310 283 279 287 289 288 290 286 276 266 266 255 259 243 224 216 207 211 196 145 119 117 137 110 147 223 195 188 229 248 184 171 289 243 285 179 207 225 251 243 231 227 227
331 326 321 296 278 282 288 284 280 274 255 258 248 265 240 219 207 199 201 193 191 186 148 166 150 196 183 231 294 216 247 224 279 107 250 264 267 270 257 255 258 248 235 227 227
319 331 322 308 286 279 287 286 281 252 228 220 198 224 293 218 195 189 189 188 183 193 228 119 232 203 124 48 64 93 289 290 290 66 289 265 282 287 289 244 253 242 226 222 225
309 324 327 314 294 270 285 226 134 221 293 243 242 236 241 221 212 201 185 189 193 215 184 211 240 107 122 134 161 224 279 275 270 260 287 307 296 288 247 245 245 231 219 222 224
301 317 325 321 299 252 212 193 202 333 264 260 229 231 224 219 228 205 187 180 198 192 208 253 70 146 173 170 216 225 263 283 308 320 256 297 262 210 194 242 241 238 228 223 221
294 304 318 330 285 229 205 204 222 291 275 195 194 215 198 191 222 211 189 182 166 219 188 254 132 182 189 225 232 265 174 186 310 309 287 273 272 205 198 236 222 210 216 223 220
288 297 311 323 237 203 206 194 191 197 282 106 148 172 177 192 129 169 183 189 201 169 203 115 180 184 211 241 199 41 142 325 283 271 288 189 254 136 176 216 203 198 196 200 202
276 284 298 315 244 201 191 177 152 227 245 148 141 157 162 199 127 123 166 157 121 143 172 112 183 232 21 95 46 136 170 213 226 254 241 126 255 193 186 208 183 190 189 181 176
272 271 281 295 255 207 174 155 207 234 100 169 171 171 184 181 175 191 185 183 191 187 209 172 195 158 171 158 135 200 216 217 208 205 278 114 235 273 191 180 180 177 174 175 174
259 258 272 278 253 199 173 193 223 295 219 104 127 152 186 168 196 181 197 212 210 204 150 211 209 184 168 240 245 191 256 273 260 241 34 152 230 213 194 173 170 166 169 179 182
241 246 255 268 252 195 191 215 217 203 164 166 143 183 188 188 214 197 223 235 221 199 218 197 217 123 85 127 250 156 216 18 278 139 269 202 244 252 201 201 199 197 194 191 188
234 236 251 254 236 195 208 229 215 202 154 181 210 207 193 184 188 196 196 213 214 201 217 191 209 134 119 164 135 256 130 173 208 226 243 206 258 226 189 198 196 197 201 195 195
239 225 232 215 191 190 217 220 231 227 197 193 227 183 212 183 208 199 209 202 211 185 209 181 240 124 170 207 192 167 202 217 297 247 270 293 234 229 202 195 192 196 197 196 197
221 203 194 180 176 209 219 212 229 248 204 228 252 226 202 188 195 215 226 234 178 161 186 193 239 212 200 113 294 255 229 201 229 187 235 311 279 150 215 201 198 195 194 196 198
229 217 182 175 208 207 221 219 230 222 216 204 215 219 184 186 210 211 197 290 178 178 170 176 214 210 195 184 187 220 203 212 120 129 212 202 234 81 221 213 203 199 197 199 203
232 201 175 196 234 245 217 215 215 235 243 236 231 174 171 206 214 211 230 198 194 212 226 185 205 229 237 73 119 198 197 204 210 217 225 229 267 272 222 218 203 210 206 205 209
227 227 187 184 221 207 205 221 207 220 218 216 230 221 199 204 201 226 204 188 186 208 202 207 241 232 248 247 198 220 200 196 210 227 227 244 231 251 253 227 218 219 214 214 214
239 195 195 191 181 206 218 222 222 214 220 218 232 222 225 229 217 217 194 207 209 178 190 201 233 207 252 239 231 248 230 207 216 234 245 261 269 251 262 265 234 224 218 219 220
237 253 253 183 186 188 220 220 222 217 219 233 226 229 228 232 233 251 223 246 243 191 192 183 214 207 251 181 237 258 226 211 210 214 219 228 245 242 237 236 240 236 226 226 225
Height
1586 1586 1586 1585 1585 1584 1583 1583 1582 1582 1581 1581 1580 1579 1578 1578 1577 1576 1575 1575 1573 1572 1572 1571 1570 1569 1568 1567 1567 1567 1566 1567 1569 1571 1571 1577 1578 1580 1580 1581 1582 1583 1584 1584 1584
1586 1586 1585 1585 1584 1584 1583 1582 1582 1581 1581 1580 1579 1578 1577 1577 1576 1575 1574 1572 1571 1571 1572 1571 1570 1569 1569 1569 1569 1567 1564 1566 1570 1571 1571 1576 1577 1579 1580 1580 1581 1581 1581 1582 1583
1586 1586 1585 1584 1584 1583 1583 1582 1581 1580 1580 1579 1578 1577 1577 1576 1576 1575 1573 1571 1571 1571 1571 1570 1569 1569 1569 1569 1569 1568 1565 1570 1573 1574 1575 1576 1578 1579 1578 1577 1577 1578 1580 1579 1581
1586 1585 1584 1583 1583 1582 1582 1581 1580 1579 1579 1578 1577 1577 1576 1575 1575 1573 1572 1571 1570 1570 1571 1570 1569 1569 1568 1567 1570 1568 1572 1572 1574 1575 1576 1576 1577 1576 1576 1575 1575 1576 1577 1577 1578
1584 1584 1583 1582 1581 1581 1580 1579 1579 1578 1577 1577 1576 1576 1576 1576 1574 1572 1572 1571 1570 1570 1570 1570 1569 1569 1567 1569 1570 1568 1572 1574 1574 1575 1576 1576 1575 1574 1572 1573 1572 1573 1574 1575 1576
1583 1582 1582 1581 1580 1579 1579 1578 1577 1577 1576 1576 1575 1575 1575 1575 1572 1572 1571 1571 1570 1570 1569 1569 1569 1569 1570 1570 1569 1572 1573 1573 1574 1575 1575 1575 1573 1574 1568 1568 1568 1569 1571 1573 1574
1582 1580 1580 1579 1578 1578 1577 1576 1575 1575 1575 1574 1574 1574 1574 1574 1571 1571 1571 1571 1570 1570 1570 1569 1569 1571 1571 1571 1572 1573 1572 1572 1572 1573 1573 1574 1569 1566 1566 1565 1566 1567 1568 1569 1570
1581 1579 1577 1576 1576 1576 1575 1574 1573 1573 1573 1573 1573 1573 1572 1570 1570 1570 1571 1571 1570 1569 1570 1569 1569 1570 1571 1573 1572 1570 1569 1566 1570 1572 1572 1573 1558 1560 1563 1564 1564 1564 1565 1566 1567
1580 1577 1575 1574 1573 1573 1573 1572 1571 1571 1571 1571 1573 1573 1570 1568 1569 1569 1570 1571 1570 1570 1570 1570 1570 1571 1572 1568 1566 1566 1562 1566 1567 1571 1571 1570 1557 1558 1560 1561 1561 1561 1562 1563 1564
1577 1576 1574 1572 1571 1571 1571 1570 1569 1569 1570 1570 1570 1574 1568 1568 1567 1568 1569 1570 1570 1570 1571 1571 1571 1567 1568 1565 1564 1565 1564 1567 1567 1569 1569 1565 1559 1555 1556 1557 1555 1556 1557 1558 1560
1575 1573 1572 1570 1570 1570 1570 1570 1572 1571 1568 1566 1566 1565 1565 1566 1566 1567 1568 1569 1570 1570 1567 1570 1567 1564 1565 1569 1569 1569 1569 1568 1565 1570 1570 1560 1557 1550 1550 1551 1551 1550 1552 1553 1555
1573 1571 1569 1569 1568 1569 1569 1569 1569 1571 1566 1561 1562 1563 1564 1565 1566 1566 1568 1570 1569 1566 1569 1569 1564 1568 1571 1573 1572 1571 1569 1564 1566 1570 1568 1557 1551 1544 1546 1547 1547 1547 1547 1549 1552
1572 1569 1568 1566 1567 1568 1568 1569 1569 1569 1567 1558 1556 1557 1561 1564 1564 1564 1566 1566 1567 1567 1566 1565 1568 1571 1571 1572 1572 1570 1569 1568 1570 1567 1566 1564 1546 1540 1542 1544 1544 1544 1544 1546 1547
1570 1568 1566 1565 1567 1566 1567 1567 1568 1569 1563 1552 1554 1554 1556 1560 1561 1561 1563 1566 1566 1564 1567 1566 1571 1570 1570 1569 1570 1570 1572 1573 1573 1570 1557 1564 1541 1536 1535 1538 1540 1540 1541 1542 1542
1567 1566 1565 1565 1563 1565 1567 1567 1568 1570 1567 1554 1553 1553 1553 1558 1559 1560 1561 1563 1562 1564 1568 1565 1569 1570 1569 1568 1570 1570 1574 1573 1574 1569 1567 1559 1555 1524 1537 1535 1533 1536 1538 1540 1540
1565 1565 1563 1564 1562 1563 1565 1567 1570 1569 1562 1550 1551 1552 1554 1557 1557 1559 1561 1563 1563 1565 1566 1567 1569 1569 1567 1573 1573 1575 1573 1573 1573 1568 1559 1553 1555 1524 1529 1526 1528 1533 1536 1538 1539
1562 1563 1562 1562 1563 1563 1564 1568 1569 1562 1547 1548 1549 1550 1551 1555 1557 1557 1558 1559 1557 1566 1563 1566 1565 1569 1570 1570 1574 1572 1570 1562 1562 1562 1547 1563 1560 1521 1521 1525 1525 1530 1535 1536 1537
1559 1559 1559 1559 1560 1561 1564 1566 1563 1543 1542 1546 1548 1550 1550 1553 1555 1557 1556 1554 1558 1556 1559 1558 1562 1564 1565 1562 1560 1567 1566 1555 1562 1552 1547 1566 1547 1516 1522 1526 1528 1531 1533 1534 1535
1554 1555 1554 1556 1557 1559 1565 1556 1538 1539 1539 1544 1548 1547 1549 1551 1553 1555 1553 1549 1547 1553 1553 1555 1557 1565 1566 1566 1567 1567 1568 1564 1562 1571 1560 1532 1527 1518 1522 1524 1526 1528 1530 1531 1532
1548 1550 1549 1553 1554 1558 1559 1543 1536 1538 1539 1541 1535 1536 1540 1546 1550 1551 1549 1540 1543 1545 1547 1546 1554 1565 1567 1568 1569 1565 1564 1563 1560 1563 1553 1527 1530 1505 1517 1515 1520 1523 1524 1527 1529
1545 1545 1544 1546 1552 1556 1541 1535 1535 1538 1538 1537 1532 1537 1535 1542 1540 1543 1539 1538 1540 1544 1547 1547 1548 1566 1567 1561 1553 1566 1560 1562 1557 1554 1543 1533 1509 1495 1498 1504 1509 1515 1520 1523 1525
1539 1540 1539 1542 1551 1545 1538 1535 1535 1534 1536 1536 1536 1534 1533 1535 1538 1539 1534 1532 1536 1539 1543 1544 1542 1549 1548 1556 1557 1553 1545 1545 1541 1551 1554 1553 1516 1500 1501 1501 1507 1511 1515 1519 1522
1534 1534 1534 1536 1535 1536 1535 1532 1531 1529 1530 1532 1531 1532 1533 1533 1536 1532 1533 1533 1535 1535 1534 1540 1539 1543 1546 1554 1555 1550 1545 1543 1548 1548 1545 1541 1506 1502 1503 1505 1507 1509 1512 1515 1518
1532 1529 1531 1529 1528 1527 1527 1525 1525 1525 1528 1529 1526 1529 1531 1531 1531 1530 1531 1532 1533 1535 1534 1536 1531 1524 1521 1521 1528 1542 1542 1541 1537 1540 1524 1523 1502 1496 1499 1502 1504 1505 1508 1510 1512
1519 1513 1512 1518 1522 1521 1523 1516 1519 1520 1522 1523 1521 1521 1521 1524 1527 1528 1529 1532 1533 1532 1535 1534 1530 1525 1522 1528 1530 1526 1530 1538 1537 1522 1521 1503 1509 1493 1493 1496 1499 1502 1505 1506 1507
1512 1507 1510 1507 1507 1515 1514 1503 1505 1512 1510 1512 1515 1516 1517 1515 1515 1517 1521 1524 1519 1531 1531 1532 1524 1528 1523 1523 1526 1525 1523 1525 1526 1521 1515 1514 1502 1495 1496 1496 1496 1497 1499 1499 1500
1503 1504 1502 1497 1500 1506 1497 1498 1498 1506 1503 1505 1508 1511 1510 1509 1513 1513 1515 1515 1515 1517 1522 1525 1523 1528 1520 1524 1528 1522 1506 1511 1510 1508 1505 1510 1477 1488 1489 1489 1488 1489 1491 1490 1491